Location: Aghk�ilisa
(40.0189°N, 45.0097°E)
Time: 12:11:55
(UTC+00:00)

USA 238 DEB - Pass Details

Date: 21 October 2019
Orbit: 1028 x 1184 km, 63.4° (Epoch: 11 November)

Event Time Altitude Azimuth Distance (km) Brightness Sun altitude
Rises 15:19:31 0° 213° (SSW) 3,766 7.1 -13.5°
Reaches altitude 10° 15:22:05 10° 213° (SSW) 2,824 6.4 -14.0°
Maximum altitude 15:28:45 87° 304° (NW) 1,056 3.7 -15.3°
Drops below altitude 10° 15:35:40 10° 34° (NNE) 2,918 5.7 -16.6°
Enters shadow 15:37:40 - 34° (NE) 3,644 6.2 -17.0°
